Regional Weather Roundup
Issued by NWS Bismarck, ND

Home | Current Version | Previous Version | Text Only | Print | Product List | Glossary On
Versions: 1 2 3 4 5 6 7 8 9 10 11 12 13 14 15 16 17 18 19 20 21 22 23 24 25 26 27 28 29 30 31 32 33 34 35 36 37 38 39 40 41 42 43 44 45 46 47 48 49 50
000
ASUS43 KBIS 282010
RWRBIS

NWR BROADCAST TEXT
NATIONAL WEATHER SERVICE BISMARCK ND
300 PM CDT THU MAY 28 2015

NOTE: "FAIR" INDICATES FEW OR NO CLOUDS BELOW 12,000 FEET WITH NO
SIGNIFICANT WEATHER AND/OR OBSTRUCTIONS TO VISIBILITY.


CITY           SKY/WX    TMP DP  RH WIND       PRES   REMARKS
WILLISTON      PTSUNNY   72  54  53 N16       29.89S
MINOT          CLOUDY    70  57  63 N10       29.86S
MINOT AFB      PTSUNNY   70  69  96 N9        29.86S
BISMARCK       PTSUNNY   77  56  48 NW8       29.85F
DICKINSON      PTSUNNY   74  53  48 NW9G17    29.88F
GARRISON         N/A     72  57  59 NW15      29.86S
HETTINGER ARPT PTSUNNY   69  54  58 N5        29.91F
JAMESTOWN      PTSUNNY   71  62  73 S10       29.84R
BEACH          MOCLDY    72  54  53 NW14G20   29.91S
CARRINGTON     FAIR      73  64  73 W8        29.82F
CROSBY         FAIR      70  54  56 NE10G28   29.90S
HARVEY         MOCLDY    73  59  60 W8        29.84F
HAZEN          FAIR      73  54  49 N12       29.87S
LINTON         FAIR      75  63  64 SW6       29.85F
MANDAN         MOCLDY    73  57  56 NW12      29.87F
OAKES            N/A     82  64  54 S24G30    29.82S
STANLEY        FAIR      68  61  77 N8        29.89F
WATFORD CITY     N/A     68  55  64 N8        29.88
$$

CITY           SKY/WX    TMP DP  RH WIND       PRES   REMARKS
GRAND FORKS    CLOUDY    76  63  64 SW9G18    29.80F
GRAND FORKS AF PTSUNNY   78  63  61 S9        29.80F
DEVILS LAKE    PTSUNNY   73  59  60 W10       29.81F
FARGO          SUNNY     85  60  42 SW20G28   29.81F
CANDO          CLOUDY    72  59  64 W8        29.84F
CAVALIER       MOCLDY    72  61  68 S3        29.82F
GRAFTON        MOCLDY    75  63  64 S9        29.82F
LANGDON        CLOUDY    72  59  64 W7        29.84S
ROLLA          CLOUDY    66  57  72 W6        29.87S
WALHALLA         N/A     70  64  83 MISG      29.82F THUNDER
$$

CITY           SKY/WX    TMP DP  RH WIND       PRES   REMARKS
ABERDEEN       MOSUNNY   84  59  42 S20G29    29.82F
MOBRIDGE       MOSUNNY   77  59  53 VRB3      29.83F
BUFFALO          N/A     71  50  47 NW17      29.85F
RAPID CITY     PTSUNNY   72  54  53 N9        29.92F
GLASGOW        TSTM      58  49  72 E6        29.96R
SIDNEY         PTSUNNY   73  54  49 NW8       29.89R
WOLF POINT     PTSUNNY   76  52  43 NE16      29.91F
GLENDIVE       PTSUNNY   72  54  53 NW16      29.91F
MILES CITY     CLOUDY    75  50  41 N14       29.93F
BAKER          PTSUNNY   73  49  42 NW14G22   29.93F
$$

CITY           SKY/WX    TMP DP  RH WIND       PRES   REMARKS
BILLINGS       TSTM      54  50  86 N12       30.07R
GREAT FALLS    CLOUDY    56  51  84 NW18G26   30.15R
REGINA         PTSUNNY   59  46  63 N31G39    29.98R
ESTEVAN        CLOUDY    70  55  60 N8        29.90F
$$



USA.gov is the U.S. government's official web portal to all federal, state and local government web resources and services.